{"data":{"norad_id":58512,"intl_designator":"2023-191E","name":"STARLINK-30982","alt_names":[],"object_type":"PAYLOAD","status":"ACTIVE","operator":null,"country":"US","launch_date":"2023-12-07","launch_site_code":"AFETR","launch_vehicle":null,"mission":null,"orbit_class":"UNKNOWN","rcs_meters":null,"size_class":null,"mass_kg":null,"dimensions":null,"purposes":["comms"],"wikipedia_slug":null,"has_3d_model":false,"image_url":null,"decayed_at":null,"tle_current":{"epoch":"2026-05-25T00:55:38.000928Z","epoch_age_seconds":65635,"freshness":"FRESH","line1":"1 58512U 23191E   26145.03863427  .00001026  00000+0  46769-4 0  9992","line2":"2 58512  43.0018  32.6187 0000516 269.3370  90.7423 15.27585285137147","mean_motion":15.27585285,"eccentricity":5.16e-5,"inclination_deg":43.0018,"raan_deg":32.6187,"arg_perigee_deg":269.337,"mean_anomaly_deg":90.7423,"bstar":4.6769e-5,"rev_number":13714,"period_min":94.266422578167,"perigee_km":482.67923450803,"apogee_km":483.38730727999,"semimajor_km":6861.170270894,"source":"CELESTRAK","updated_at":"2026-05-25T13:38:18.656005Z"}}}